Regional Weather Roundup
Issued by NWS Cleveland, OH

Home | Current Version | Previous Version | Graphics & Text | Print | Product List | Glossary On
Versions: 1 2 3 4 5 6 7 8 9 10 11 12 13 14 15 16 17 18 19 20 21 22 23 24 25 26 27 28 29 30 31 32 33 34 35 36 37 38 39 40 41 42 43 44 45 46 47 48 49 50
000
ASUS41 KCLE 310110
RWRCLE
OHIO REGIONAL WEATHER ROUNDUP
NATIONAL WEATHER SERVICE WILMINGTON, OH
900 PM EDT SUN AUG 30 2015

NOTE: "FAIR" INDICATES FEW OR NO CLOUDS BELOW 12,000 FEET WITH NO
SIGNIFICANT WEATHER AND/OR OBSTRUCTIONS TO VISIBILITY.

OHZ001>008-015>018-024>027-034-035-043-044-310200-
   NORTHWEST OHIO

CITY           SKY/WX    TMP DP  RH WIND       PRES   REMARKS
DEFIANCE       CLEAR     76  69  79 CALM      30.03R
FINDLAY        CLEAR     73  68  84 CALM      30.03R
TOLEDO EXPRESS CLEAR     72  68  87 CALM      30.02R
TOLEDO EXEC    CLEAR     76  66  71 S7        30.03R
LIMA           PTCLDY    74  69  85 S7        30.05R
$$

OHZ009>014-019>023-028>033-038-089-310200-
   NORTHEAST OHIO

CITY           SKY/WX    TMP DP  RH WIND       PRES   REMARKS
CLE-HOPKINS    PTCLDY    77  66  68 CALM      30.06R
CLE-LAKEFRONT  MOCLDY    80  67  64 CALM      30.03R
CUY CO. ARPT   MOCLDY    75  72  88 S6        30.06R
LORAIN-ELYRIA  PTCLDY    73  67  81 S3        30.05R
ASHTABULA      MOCLDY    71  69  93 CALM      30.07R
AKRON-CANTON   PTCLDY    75  66  73 S7        30.08R
WOOSTER        MOCLDY    70  68  93 CALM      30.08R
MANSFIELD      CLOUDY    72  67  84 S8        30.08S
YOUNGSTOWN     PTCLDY    69  67  93 S3        30.08R
$$

OHZ042-051>053-060>062-070>072-077>081-310200-
  SOUTHWEST OHIO

CITY           SKY/WX    TMP DP  RH WIND       PRES   REMARKS
CINC-COVINGTON MOCLDY    75  68  78 S3        30.07R
CINC-LUNKEN    MOCLDY    73  69  87 CALM      30.07R
HAMILTON       MOCLDY    70  67  90 SE5       30.08R
DAYTON         PTCLDY    74  64  71 SW9       30.08R
WRIGHT-PAT AFB CLEAR     73  65  76 S6        30.07R
DAYTON GENERAL CLOUDY    70  64  81 S6        30.07R
WILMINGTON     MOCLDY    70  62  76 CALM      30.08R
$$

OHZ036-037-039>041-045>050-054>059-063>069-073>076-082>088-310200-
  CENTRAL AND SOUTHEAST OHIO

CITY           SKY/WX    TMP DP  RH WIND       PRES   REMARKS
COLUMBUS       MOCLDY    79  67  66 SW7       30.05R
OSU AIRPORT    MOCLDY    78  68  71 SW10      30.06R
BOLTON FIELD   MOCLDY    73  69  87 SW6       30.07R
RICKENBACK AFB MOCLDY    77  67  72 S6        30.06R
NEWARK         MOCLDY    73  69  87 NW5       30.06R THUNDER
MARION         PTCLDY    70  66  87 CALM      30.06R
LANCASTER      PTCLDY    77  68  73 S3        30.07R
ZANESVILLE     PTCLDY    74  66  76 NE3       30.08R
NEW PHILLY     PTCLDY    73  66  78 S3        30.09R
$$


USA.gov is the U.S. government's official web portal to all federal, state and local government web resources and services.